This is the latest recevied weather packets stored in our database for station/object LU5DTF-1. If no packets are shown the sender has not sent any weather packets the latest 10 day(s).
| Time | Temp. | Humidity | Pressure | Rain* | Wind** | Luminosity | Snow |
|---|---|---|---|---|---|---|---|
| 1777721997 | 7.78° C | 88% | 1020 hPa | 1.02 mm | - | - | - |
| 1777721697 | 7.78° C | 88% | 1019.9 hPa | 1.02 mm | - | - | - |
| 1777721397 | 7.22° C | 88% | 1019.9 hPa | 1.02 mm | - | - | - |
| 1777721097 | 7.22° C | 88% | 1019.7 hPa | 0.51 mm | - | - | - |
| 1777720797 | 7.22° C | 88% | 1019.8 hPa | 0.51 mm | - | - | - |
| 1777720497 | 7.22° C | 88% | 1019.8 hPa | 0.76 mm | - | - | - |
| 1777720197 | 7.22° C | 88% | 1019.7 hPa | 1.02 mm | - | - | - |
| 1777719897 | 7.22° C | 89% | 1019.5 hPa | 1.52 mm | - | - | - |
| 1777719597 | 7.22° C | 88% | 1019.6 hPa | 1.52 mm | - | - | - |
| 1777719297 | 7.22° C | 88% | 1019.7 hPa | 1.52 mm | - | - | - |
| 1777718997 | 7.22° C | 89% | 1019.3 hPa | 1.27 mm | - | - | - |
| 1777718697 | 7.22° C | 89% | 1019.5 hPa | 1.02 mm | - | - | - |
| 1777718397 | 7.22° C | 89% | 1019.1 hPa | 0.76 mm | - | - | - |
| 1777718097 | 7.22° C | 89% | 1018.9 hPa | 1.02 mm | - | - | - |
| 1777717797 | 7.22° C | 89% | 1018.8 hPa | 1.02 mm | - | - | - |
| 1777717497 | 7.22° C | 88% | 1018.8 hPa | 1.52 mm | - | - | - |
| 1777717197 | 7.22° C | 87% | 1019.1 hPa | 1.52 mm | - | - | - |
| 1777716897 | 7.78° C | 87% | 1019.1 hPa | 1.52 mm | - | - | - |
| 1777716597 | 7.78° C | 85% | 1019.1 hPa | 1.27 mm | - | - | - |
| 1777716297 | 7.78° C | 85% | 1018.7 hPa | 0.76 mm | - | - | - |
| 1777715997 | 7.78° C | 85% | 1018.4 hPa | 0.76 mm | - | - | - |
| 1777715697 | 7.78° C | 85% | 1018.4 hPa | 1.02 mm | - | - | - |
| 1777715397 | 7.78° C | 85% | 1018.2 hPa | 1.02 mm | - | - | - |
| 1777715097 | 8.33° C | 85% | 1018.3 hPa | 1.02 mm | - | - | - |
| 1777714797 | 8.33° C | 85% | 1018.3 hPa | 1.02 mm | - | - | - |
* Rain latest hour (hover to see other rain measurements)
** Current wind speed in m/s (hover to see current wind gust speed)